Location: Schommer Observatory
(40.5200°N, 74.4500°W)
Time: 04:21:41
(UTC-04:00)

ISS - Pass Details

Date: 20 May 2018
Orbit: 402 x 407 km, 51.6° (Epoch: 23 May)

Event Time Altitude Azimuth Distance (km) Brightness Sun altitude
Rises 03:25:11 0° 312° (NW) 2,319 0.1 -20.1°
Reaches altitude 10° 03:27:33 10° 328° (NNW) 1,458 -0.8 -19.8°
Maximum altitude 03:30:14 23° 23° (NNE) 911 -1.3 -19.5°
Drops below altitude 10° 03:32:55 10° 78° (ENE) 1,454 -0.3 -19.1°
Sets 03:35:16 0° 94° (E) 2,311 0.5 -18.9°
